Year,Month,Day,Hour,Minute,Value (Times are PST for temperature in C)
2010,08,10,00,00,13.80
2010,08,10,00,05,13.80
2010,08,10,00,06,13.80
2010,08,10,00,07,13.90
2010,08,10,00,08,13.90
2010,08,10,00,09,13.90
2010,08,10,00,10,13.90
2010,08,10,00,11,13.90
2010,08,10,00,12,14.00
2010,08,10,00,13,14.00
2010,08,10,00,14,14.00
2010,08,10,00,15,14.00
2010,08,10,00,16,14.00
2010,08,10,00,17,14.00
2010,08,10,00,18,14.00
2010,08,10,00,19,14.00
2010,08,10,00,20,14.00
2010,08,10,00,21,14.00
2010,08,10,00,22,14.00
2010,08,10,00,23,14.00
2010,08,10,00,24,14.00
2010,08,10,00,25,14.00
2010,08,10,00,26,14.00
2010,08,10,00,27,14.00
2010,08,10,00,28,14.00
2010,08,10,00,29,14.00
2010,08,10,00,30,14.00
2010,08,10,00,31,14.00
2010,08,10,00,32,14.10
2010,08,10,00,33,14.10
2010,08,10,00,34,14.10
2010,08,10,00,35,14.10
2010,08,10,00,36,14.10
2010,08,10,00,37,14.20
2010,08,10,00,38,14.20
2010,08,10,00,39,14.20
2010,08,10,00,40,14.20
2010,08,10,00,41,14.20
2010,08,10,00,42,14.20
2010,08,10,00,43,14.20
2010,08,10,00,44,14.20
2010,08,10,00,45,14.20
2010,08,10,00,46,14.20
2010,08,10,00,47,14.30
2010,08,10,00,48,14.30
2010,08,10,00,49,14.30
2010,08,10,00,50,14.30
2010,08,10,00,51,14.30
2010,08,10,00,52,14.30
2010,08,10,00,53,14.30
2010,08,10,00,54,14.30
2010,08,10,00,55,14.30
2010,08,10,00,56,14.30
2010,08,10,00,57,14.30
2010,08,10,00,58,14.30
2010,08,10,00,59,14.30
2010,08,10,01,00,14.30
2010,08,10,01,01,14.30
2010,08,10,01,02,14.30
2010,08,10,01,03,14.30
2010,08,10,01,04,14.30
2010,08,10,01,05,14.30
2010,08,10,01,06,14.30
2010,08,10,01,07,14.30
2010,08,10,01,08,14.30
2010,08,10,01,09,14.30
2010,08,10,01,10,14.30
2010,08,10,01,11,14.30
2010,08,10,01,12,14.30
2010,08,10,01,13,14.30
2010,08,10,01,14,14.40
2010,08,10,01,15,14.40
2010,08,10,01,16,14.40
2010,08,10,01,17,14.40
2010,08,10,01,18,14.50
2010,08,10,01,19,14.50
2010,08,10,01,20,14.50
2010,08,10,01,21,14.50
2010,08,10,01,22,14.50
2010,08,10,01,23,14.50
2010,08,10,01,24,14.50
2010,08,10,01,25,14.50
2010,08,10,01,26,14.50
2010,08,10,01,27,14.40
2010,08,10,01,28,14.40
2010,08,10,01,29,14.40
2010,08,10,01,30,14.40
2010,08,10,01,31,14.40
2010,08,10,01,32,14.40
2010,08,10,01,33,14.40
2010,08,10,01,34,14.40
2010,08,10,01,35,14.40
2010,08,10,01,36,14.40
2010,08,10,01,37,14.30
2010,08,10,01,38,14.30
2010,08,10,01,39,14.30
2010,08,10,01,40,14.30
2010,08,10,01,41,14.30
2010,08,10,01,42,14.30
2010,08,10,01,43,14.30
2010,08,10,01,44,14.30
2010,08,10,01,45,14.30
2010,08,10,01,46,14.20
2010,08,10,01,47,14.20
2010,08,10,01,48,14.20
2010,08,10,01,49,14.20
2010,08,10,01,50,14.20
2010,08,10,01,51,14.20
2010,08,10,01,52,14.20
2010,08,10,01,53,14.10
2010,08,10,01,54,14.10
2010,08,10,01,55,14.10
2010,08,10,01,56,14.10
2010,08,10,01,57,14.10
2010,08,10,01,58,14.10
2010,08,10,01,59,14.10
2010,08,10,02,00,14.10
2010,08,10,02,01,14.10
2010,08,10,02,02,14.10
2010,08,10,02,03,14.10
2010,08,10,02,04,14.10
2010,08,10,02,05,14.10
2010,08,10,02,06,14.20
2010,08,10,02,07,14.20
2010,08,10,02,08,14.20
2010,08,10,02,09,14.20
2010,08,10,02,10,14.20
2010,08,10,02,11,14.20
2010,08,10,02,12,14.20
2010,08,10,02,13,14.20
2010,08,10,02,14,14.20
2010,08,10,02,15,14.20
2010,08,10,02,16,14.20
2010,08,10,02,17,14.20
2010,08,10,02,18,14.20
2010,08,10,02,19,14.20
2010,08,10,02,20,14.20
2010,08,10,02,21,14.20
2010,08,10,02,22,14.20
2010,08,10,02,23,14.20
2010,08,10,02,24,14.20
2010,08,10,02,25,14.20
2010,08,10,02,26,14.20
2010,08,10,02,27,14.20
2010,08,10,02,28,14.20
2010,08,10,02,29,14.20
2010,08,10,02,30,14.20
2010,08,10,02,31,14.20
2010,08,10,02,32,14.20
2010,08,10,02,33,14.20
2010,08,10,02,34,14.20
2010,08,10,02,35,14.20
2010,08,10,02,36,14.20
2010,08,10,02,37,14.20
2010,08,10,02,38,14.20
2010,08,10,02,39,14.20
2010,08,10,02,40,14.30
2010,08,10,02,41,14.30
2010,08,10,02,42,14.30
2010,08,10,02,43,14.30
2010,08,10,02,44,14.30
2010,08,10,02,45,14.30
2010,08,10,02,46,14.30
2010,08,10,02,47,14.30
2010,08,10,02,48,14.30
2010,08,10,02,49,14.30
2010,08,10,02,50,14.30
2010,08,10,02,51,14.30
2010,08,10,02,52,14.30
2010,08,10,02,53,14.30
2010,08,10,02,54,14.30
2010,08,10,02,55,14.30
2010,08,10,02,56,14.30
2010,08,10,02,57,14.30
2010,08,10,02,58,14.30
2010,08,10,02,59,14.40
2010,08,10,03,00,14.40
2010,08,10,03,01,14.40
2010,08,10,03,02,14.40
2010,08,10,03,03,14.40
2010,08,10,03,04,14.40
2010,08,10,03,05,14.40
2010,08,10,03,06,14.40
2010,08,10,03,07,14.40
2010,08,10,03,08,14.40
2010,08,10,03,09,14.40
2010,08,10,03,10,14.50
2010,08,10,03,11,14.50
2010,08,10,03,12,14.50
2010,08,10,03,13,14.50
2010,08,10,03,14,14.50
2010,08,10,03,15,14.50
2010,08,10,03,16,14.50
2010,08,10,03,17,14.50
2010,08,10,03,18,14.60
2010,08,10,03,19,14.60
2010,08,10,03,20,14.60
2010,08,10,03,21,14.60
2010,08,10,03,22,14.60
2010,08,10,03,23,14.60
2010,08,10,03,24,14.60
2010,08,10,03,25,14.60
2010,08,10,03,26,14.60
2010,08,10,03,27,14.60
2010,08,10,03,28,14.60
2010,08,10,03,29,14.60
2010,08,10,03,30,14.60
2010,08,10,03,31,14.60
2010,08,10,03,32,14.60
2010,08,10,03,33,14.60
2010,08,10,03,34,14.50
2010,08,10,03,35,14.50
2010,08,10,03,36,14.50
2010,08,10,03,37,14.50
2010,08,10,03,38,14.50
2010,08,10,03,39,14.50
2010,08,10,03,40,14.50
2010,08,10,03,41,14.50
2010,08,10,03,42,14.50
2010,08,10,03,43,14.50
2010,08,10,03,44,14.50
2010,08,10,03,45,14.50
2010,08,10,03,46,14.50
2010,08,10,03,47,14.40
2010,08,10,03,48,14.40
2010,08,10,03,49,14.50
2010,08,10,03,50,14.50
2010,08,10,03,51,14.50
2010,08,10,03,52,14.40
2010,08,10,03,53,14.50
2010,08,10,03,54,14.50
2010,08,10,03,55,14.50
2010,08,10,03,56,14.50
2010,08,10,03,57,14.50
2010,08,10,03,58,14.50
2010,08,10,03,59,14.50
2010,08,10,04,00,14.50
2010,08,10,04,01,14.60
2010,08,10,04,02,14.60
2010,08,10,04,03,14.60
2010,08,10,04,04,14.60
2010,08,10,04,05,14.60
2010,08,10,04,06,14.70
2010,08,10,04,07,14.70
2010,08,10,04,08,14.70
2010,08,10,04,09,14.70
2010,08,10,04,10,14.70
2010,08,10,04,11,14.70
2010,08,10,04,12,14.70
2010,08,10,04,13,14.70
2010,08,10,04,14,14.70
2010,08,10,04,15,14.70
2010,08,10,04,16,14.60
2010,08,10,04,17,14.60
2010,08,10,04,18,14.60
2010,08,10,04,19,14.60
2010,08,10,04,20,14.60
2010,08,10,04,21,14.60
2010,08,10,04,22,14.70
2010,08,10,04,23,14.70
2010,08,10,04,24,14.70
2010,08,10,04,25,14.70
2010,08,10,04,26,14.70
2010,08,10,04,27,14.70
2010,08,10,04,28,14.70
2010,08,10,04,29,14.70
2010,08,10,04,30,14.60
2010,08,10,04,31,14.60
2010,08,10,04,32,14.60
2010,08,10,04,33,14.60
2010,08,10,04,34,14.60
2010,08,10,04,35,14.50
2010,08,10,04,36,14.50
2010,08,10,04,37,14.40
2010,08,10,04,38,14.40
2010,08,10,04,39,14.40
2010,08,10,04,40,14.40
2010,08,10,04,41,14.30
2010,08,10,04,42,14.30
2010,08,10,04,43,14.30
2010,08,10,04,44,14.30
2010,08,10,04,45,14.20
2010,08,10,04,46,14.20
2010,08,10,04,47,14.10
2010,08,10,04,48,14.10
2010,08,10,04,49,14.10
2010,08,10,04,50,14.00
2010,08,10,04,51,14.00
2010,08,10,04,52,13.90
2010,08,10,04,53,13.90
2010,08,10,04,54,13.80
2010,08,10,04,55,13.80
2010,08,10,04,56,13.80
2010,08,10,04,57,13.70
2010,08,10,04,58,13.70
2010,08,10,04,59,13.70
2010,08,10,05,00,13.60
2010,08,10,05,01,13.60
2010,08,10,05,02,13.60
2010,08,10,05,03,13.60
2010,08,10,05,04,13.50
2010,08,10,05,05,13.50
2010,08,10,05,06,13.50
2010,08,10,05,07,13.50
2010,08,10,05,08,13.40
2010,08,10,05,09,13.40
2010,08,10,05,10,13.40
2010,08,10,05,11,13.40
2010,08,10,05,12,13.40
2010,08,10,05,13,13.30
2010,08,10,05,14,13.30
2010,08,10,05,15,13.30
2010,08,10,05,16,13.30
2010,08,10,05,17,13.30
2010,08,10,05,18,13.30
2010,08,10,05,19,13.30
2010,08,10,05,20,13.20
2010,08,10,05,21,13.20
2010,08,10,05,22,13.20
2010,08,10,05,23,13.20
2010,08,10,05,24,13.20
2010,08,10,05,25,13.20
2010,08,10,05,26,13.10
2010,08,10,05,27,13.10
2010,08,10,05,28,13.10
2010,08,10,05,29,13.00
2010,08,10,05,30,13.00
2010,08,10,05,31,13.00
2010,08,10,05,32,12.90
2010,08,10,05,33,12.90
2010,08,10,05,34,12.90
2010,08,10,05,35,12.90
2010,08,10,05,36,12.90
2010,08,10,05,37,12.90
2010,08,10,05,38,12.90
2010,08,10,05,39,12.90
2010,08,10,05,40,12.90
2010,08,10,05,41,12.90
2010,08,10,05,42,12.90
2010,08,10,05,43,12.90
2010,08,10,05,44,12.90
2010,08,10,05,45,12.90
2010,08,10,05,46,12.90
2010,08,10,05,47,12.90
2010,08,10,05,48,12.90
2010,08,10,05,49,12.90
2010,08,10,05,50,12.90
2010,08,10,05,51,12.90
2010,08,10,05,52,12.90
2010,08,10,05,53,12.90
2010,08,10,05,54,12.90
2010,08,10,05,55,12.90
2010,08,10,05,56,12.90
2010,08,10,05,57,12.90
2010,08,10,05,58,12.80
2010,08,10,05,59,12.80
2010,08,10,06,00,12.80
2010,08,10,06,01,12.80
2010,08,10,06,02,12.80
2010,08,10,06,03,12.80
2010,08,10,06,04,12.80
2010,08,10,06,05,12.80
2010,08,10,06,06,12.80
2010,08,10,06,07,12.80
2010,08,10,06,08,12.70
2010,08,10,06,09,12.70
2010,08,10,06,10,12.70
2010,08,10,06,11,12.70
2010,08,10,06,12,12.70
2010,08,10,06,13,12.70
2010,08,10,06,14,12.70
2010,08,10,06,15,12.70
2010,08,10,06,16,12.70
2010,08,10,06,17,12.70
2010,08,10,06,18,12.60
2010,08,10,06,19,12.60
2010,08,10,06,20,12.60
2010,08,10,06,21,12.60
2010,08,10,06,22,12.60
2010,08,10,06,23,12.60
2010,08,10,06,24,12.60
2010,08,10,06,25,12.60
2010,08,10,06,26,12.60
2010,08,10,06,27,12.60
2010,08,10,06,28,12.60
2010,08,10,06,29,12.60
2010,08,10,06,30,12.60
2010,08,10,06,31,12.60
2010,08,10,06,32,12.60
2010,08,10,06,33,12.60
2010,08,10,06,34,12.60
2010,08,10,06,35,12.60
2010,08,10,06,36,12.60
2010,08,10,06,37,12.60
2010,08,10,06,38,12.60
2010,08,10,06,39,12.60
2010,08,10,06,40,12.50
2010,08,10,06,41,12.50
2010,08,10,06,42,12.50
2010,08,10,06,43,12.50
2010,08,10,06,44,12.50
2010,08,10,06,45,12.50
2010,08,10,06,46,12.50
2010,08,10,06,47,12.50
2010,08,10,06,48,12.60
2010,08,10,06,49,12.60
2010,08,10,06,50,12.60
2010,08,10,06,51,12.60
2010,08,10,06,52,12.60
2010,08,10,06,53,12.60
2010,08,10,06,54,12.60
2010,08,10,06,55,12.60
2010,08,10,06,56,12.60
2010,08,10,06,57,12.60
2010,08,10,06,58,12.60
2010,08,10,06,59,12.60
2010,08,10,07,00,12.60
2010,08,10,07,01,12.60
2010,08,10,07,02,12.50
2010,08,10,07,03,12.60
2010,08,10,07,04,12.50
2010,08,10,07,05,12.60
2010,08,10,07,06,12.60
2010,08,10,07,07,12.60
2010,08,10,07,08,12.60
2010,08,10,07,09,12.60
2010,08,10,07,10,12.60
2010,08,10,07,11,12.60
2010,08,10,07,12,12.60
2010,08,10,07,13,12.60
2010,08,10,07,14,12.60
2010,08,10,07,15,12.70
2010,08,10,07,16,12.70
2010,08,10,07,17,12.70
2010,08,10,07,18,12.70
2010,08,10,07,19,12.80
2010,08,10,07,20,12.80
2010,08,10,07,21,12.80
2010,08,10,07,22,12.90
2010,08,10,07,23,12.90
2010,08,10,07,24,13.00
2010,08,10,07,25,13.10
2010,08,10,07,26,13.20
2010,08,10,07,27,13.20
2010,08,10,07,28,13.30
2010,08,10,07,29,13.40
2010,08,10,07,30,13.50
2010,08,10,07,31,13.60
2010,08,10,07,32,13.60
2010,08,10,07,33,13.70
2010,08,10,07,34,13.80
2010,08,10,07,35,13.90
2010,08,10,07,36,13.90
2010,08,10,07,37,14.00
2010,08,10,07,38,14.10
2010,08,10,07,39,14.20
2010,08,10,07,40,14.30
2010,08,10,07,41,14.40
2010,08,10,07,42,14.50
2010,08,10,07,43,14.50
2010,08,10,07,44,14.60
2010,08,10,07,45,14.70
2010,08,10,07,46,14.70
2010,08,10,07,47,14.80
2010,08,10,07,48,14.90
2010,08,10,07,49,14.90
2010,08,10,07,50,15.00
2010,08,10,07,51,15.10
2010,08,10,07,52,15.10
2010,08,10,07,53,15.10
2010,08,10,07,54,15.10
2010,08,10,07,55,15.10
2010,08,10,07,56,15.10
2010,08,10,07,57,15.10
2010,08,10,07,58,15.10
2010,08,10,07,59,15.10
2010,08,10,08,00,15.10
2010,08,10,08,01,15.20
2010,08,10,08,02,15.20
2010,08,10,08,03,15.20
2010,08,10,08,04,15.20
2010,08,10,08,05,15.30
2010,08,10,08,06,15.30
2010,08,10,08,07,15.30
2010,08,10,08,08,15.30
2010,08,10,08,09,15.30
2010,08,10,08,10,15.30
2010,08,10,08,11,15.30
2010,08,10,08,12,15.30
2010,08,10,08,13,15.30
2010,08,10,08,14,15.30
2010,08,10,08,15,15.30
2010,08,10,08,16,15.30
2010,08,10,08,17,15.30
2010,08,10,08,18,15.30
2010,08,10,08,19,15.30
2010,08,10,08,20,15.30
2010,08,10,08,21,15.30
2010,08,10,08,22,15.40
2010,08,10,08,23,15.40
2010,08,10,08,24,15.40
2010,08,10,08,25,15.40
2010,08,10,08,26,15.40
2010,08,10,08,27,15.40
2010,08,10,08,28,15.40
2010,08,10,08,29,15.40
2010,08,10,08,30,15.40
2010,08,10,08,31,15.40
2010,08,10,08,32,15.50
2010,08,10,08,33,15.60
2010,08,10,08,34,15.60
2010,08,10,08,35,15.60
2010,08,10,08,36,15.70
2010,08,10,08,37,15.70
2010,08,10,08,38,15.80
2010,08,10,08,39,15.80
2010,08,10,08,40,15.80
2010,08,10,08,41,15.80
2010,08,10,08,42,15.80
2010,08,10,08,43,15.80
2010,08,10,08,44,15.80
2010,08,10,08,45,15.80
2010,08,10,08,46,15.80
2010,08,10,08,47,15.80
2010,08,10,08,48,15.80
2010,08,10,08,49,15.80
2010,08,10,08,50,15.80
2010,08,10,08,51,15.80
2010,08,10,08,52,15.80
2010,08,10,08,53,15.80
2010,08,10,08,54,15.90
2010,08,10,08,55,15.90
2010,08,10,08,56,15.90
2010,08,10,08,57,16.00
2010,08,10,08,58,16.00
2010,08,10,08,59,16.10
2010,08,10,09,00,16.10
2010,08,10,09,01,16.10
2010,08,10,09,02,16.10
2010,08,10,09,03,16.10
2010,08,10,09,04,16.10
2010,08,10,09,05,16.10
2010,08,10,09,06,16.10
2010,08,10,09,07,16.10
2010,08,10,09,08,16.10
2010,08,10,09,09,16.20
2010,08,10,09,10,16.20
2010,08,10,09,11,16.20
2010,08,10,09,12,16.30
2010,08,10,09,13,16.30
2010,08,10,09,14,16.40
2010,08,10,09,15,16.40
2010,08,10,09,16,16.40
2010,08,10,09,17,16.50
2010,08,10,09,18,16.50
2010,08,10,09,19,16.60
2010,08,10,09,20,16.60
2010,08,10,09,21,16.60
2010,08,10,09,22,16.60
2010,08,10,09,23,16.60
2010,08,10,09,24,16.70
2010,08,10,09,25,16.70
2010,08,10,09,26,16.80
2010,08,10,09,27,16.90
2010,08,10,09,28,16.90
2010,08,10,09,29,16.90
2010,08,10,09,30,16.90
2010,08,10,09,31,16.90
2010,08,10,09,32,16.90
2010,08,10,09,33,16.90
2010,08,10,09,34,16.90
2010,08,10,09,35,16.90
2010,08,10,09,36,16.90
2010,08,10,09,37,16.90
2010,08,10,09,38,17.00
2010,08,10,09,39,17.00
2010,08,10,09,40,17.00
2010,08,10,09,41,17.10
2010,08,10,09,42,17.20
2010,08,10,09,43,17.20
2010,08,10,09,44,17.20
2010,08,10,09,45,17.30
2010,08,10,09,46,17.30
2010,08,10,09,47,17.30
2010,08,10,09,48,17.40
2010,08,10,09,49,17.40
2010,08,10,09,50,17.50
2010,08,10,09,51,17.50
2010,08,10,09,52,17.50
2010,08,10,09,53,17.50
2010,08,10,09,54,17.50
2010,08,10,09,55,17.50
2010,08,10,09,56,17.50
2010,08,10,09,57,17.50
2010,08,10,09,58,17.50
2010,08,10,09,59,17.40
2010,08,10,10,00,17.40
2010,08,10,10,01,17.30
2010,08,10,10,02,17.30
2010,08,10,10,03,17.30
2010,08,10,10,04,17.40
2010,08,10,10,05,17.40
2010,08,10,10,06,17.40
2010,08,10,10,07,17.40
2010,08,10,10,08,17.40
2010,08,10,10,09,17.40
2010,08,10,10,10,17.40
2010,08,10,10,11,17.40
2010,08,10,10,12,17.40
2010,08,10,10,13,17.30
2010,08,10,10,14,17.30
2010,08,10,10,15,17.30
2010,08,10,10,16,17.20
2010,08,10,10,17,17.20
2010,08,10,10,18,17.20
2010,08,10,10,19,17.10
2010,08,10,10,20,17.10
2010,08,10,10,21,17.20
2010,08,10,10,22,17.20
2010,08,10,10,23,17.20
2010,08,10,10,24,17.30
2010,08,10,10,25,17.30
2010,08,10,10,26,17.40
2010,08,10,10,27,17.50
2010,08,10,10,28,17.50
2010,08,10,10,29,17.50
2010,08,10,10,30,17.40
2010,08,10,10,31,17.40
2010,08,10,10,32,17.50
2010,08,10,10,33,17.50
2010,08,10,10,34,17.50
2010,08,10,10,35,17.60
2010,08,10,10,36,17.70
2010,08,10,10,37,17.70
2010,08,10,10,38,17.80
2010,08,10,10,39,17.90
2010,08,10,10,40,18.00
2010,08,10,10,41,17.90
2010,08,10,10,42,17.90
2010,08,10,10,43,17.90
2010,08,10,10,44,18.00
2010,08,10,10,45,18.00
2010,08,10,10,46,18.00
2010,08,10,10,47,18.10
2010,08,10,10,48,18.10
2010,08,10,10,49,18.20
2010,08,10,10,50,18.20
2010,08,10,10,51,18.20
2010,08,10,10,52,18.30
2010,08,10,10,53,18.30
2010,08,10,10,54,18.30
2010,08,10,10,55,18.30
2010,08,10,10,56,18.30
2010,08,10,10,57,18.30
2010,08,10,10,58,18.30
2010,08,10,10,59,18.30
2010,08,10,11,00,18.40
2010,08,10,11,01,18.40
2010,08,10,11,02,18.50
2010,08,10,11,03,18.50
2010,08,10,11,04,18.60
2010,08,10,11,05,18.60
2010,08,10,11,06,18.60
2010,08,10,11,07,18.70
2010,08,10,11,08,18.70
2010,08,10,11,09,18.80
2010,08,10,11,10,18.80
2010,08,10,11,11,18.80
2010,08,10,11,12,18.70
2010,08,10,11,13,18.70
2010,08,10,11,14,18.60
2010,08,10,11,15,18.60
2010,08,10,11,16,18.50
2010,08,10,11,17,18.50
2010,08,10,11,18,18.50
2010,08,10,11,19,18.50
2010,08,10,11,20,18.50
2010,08,10,11,21,18.50
2010,08,10,11,22,18.60
2010,08,10,11,24,18.70
2010,08,10,11,25,18.60
2010,08,10,11,26,18.50
2010,08,10,11,27,18.50
2010,08,10,11,28,18.40
2010,08,10,11,29,18.40
2010,08,10,11,30,18.50
2010,08,10,11,31,18.50
2010,08,10,11,32,18.60
2010,08,10,11,33,18.60
2010,08,10,11,34,18.50
2010,08,10,11,35,18.50
2010,08,10,11,36,18.40
2010,08,10,11,37,18.50
2010,08,10,11,38,18.50
2010,08,10,11,39,18.50
2010,08,10,11,40,18.60
2010,08,10,11,41,18.60
2010,08,10,11,42,18.50
2010,08,10,11,43,18.50
2010,08,10,11,44,18.60
2010,08,10,11,45,18.60
2010,08,10,11,46,18.60
2010,08,10,11,47,18.70
2010,08,10,11,48,18.70
2010,08,10,11,49,18.60
2010,08,10,11,50,18.70
2010,08,10,11,51,18.60
2010,08,10,11,52,18.60
2010,08,10,11,53,18.60
2010,08,10,11,54,18.60
2010,08,10,11,55,18.60
2010,08,10,11,56,18.60
2010,08,10,11,57,18.70
2010,08,10,11,58,18.80
2010,08,10,11,59,18.80
2010,08,10,12,00,18.80
2010,08,10,12,01,18.80
2010,08,10,12,02,18.80
2010,08,10,12,03,18.90
2010,08,10,12,04,18.90
2010,08,10,12,05,19.00
2010,08,10,12,06,19.00
2010,08,10,12,07,19.00
2010,08,10,12,08,19.00
2010,08,10,12,09,19.00
2010,08,10,12,10,19.10
2010,08,10,12,11,19.20
2010,08,10,12,12,19.10
2010,08,10,12,13,19.00
2010,08,10,12,14,19.00
2010,08,10,12,15,18.90
2010,08,10,12,16,18.90
2010,08,10,12,17,18.80
2010,08,10,12,18,18.90
2010,08,10,12,19,18.90
2010,08,10,12,20,19.10
2010,08,10,12,21,19.20
2010,08,10,12,22,19.30
2010,08,10,12,23,19.30
2010,08,10,12,24,19.30
2010,08,10,12,25,19.40
2010,08,10,12,26,19.50
2010,08,10,12,27,19.50
2010,08,10,12,28,19.60
2010,08,10,12,29,19.80
2010,08,10,12,30,19.80
2010,08,10,12,31,19.80
2010,08,10,12,32,19.80
2010,08,10,12,33,19.80
2010,08,10,12,34,19.80
2010,08,10,12,35,19.80
2010,08,10,12,36,19.80
2010,08,10,12,37,19.80
2010,08,10,12,38,19.70
2010,08,10,12,39,19.60
2010,08,10,12,40,19.60
2010,08,10,12,41,19.60
2010,08,10,12,42,19.60
2010,08,10,12,43,19.60
2010,08,10,12,44,19.60
2010,08,10,12,45,19.50
2010,08,10,12,46,19.40
2010,08,10,12,47,19.50
2010,08,10,12,48,19.50
2010,08,10,12,49,19.50
2010,08,10,12,50,19.50
2010,08,10,12,51,19.50
2010,08,10,12,52,19.50
2010,08,10,12,53,19.60
2010,08,10,12,54,19.60
2010,08,10,12,55,19.60
2010,08,10,12,56,19.70
2010,08,10,12,57,19.70
2010,08,10,12,58,19.80
2010,08,10,12,59,19.90
2010,08,10,13,00,19.90
2010,08,10,13,01,19.90
2010,08,10,13,02,19.90
2010,08,10,13,03,19.90
2010,08,10,13,04,19.80
2010,08,10,13,05,19.80
2010,08,10,13,06,19.90
2010,08,10,13,07,20.00
2010,08,10,13,08,20.00
2010,08,10,13,09,20.00
2010,08,10,13,10,20.00
2010,08,10,13,11,20.00
2010,08,10,13,12,20.10
2010,08,10,13,13,20.10
2010,08,10,13,14,20.10
2010,08,10,13,15,20.10
2010,08,10,13,16,20.00
2010,08,10,13,17,20.00
2010,08,10,13,18,19.90
2010,08,10,13,19,19.80
2010,08,10,13,20,19.70
2010,08,10,13,21,19.70
2010,08,10,13,22,19.60
2010,08,10,13,23,19.60
2010,08,10,13,24,19.60
2010,08,10,13,25,19.60
2010,08,10,13,26,19.60
2010,08,10,13,27,19.70
2010,08,10,13,28,19.80
2010,08,10,13,29,19.90
2010,08,10,13,30,20.00
2010,08,10,13,31,20.10
2010,08,10,13,32,20.10
2010,08,10,13,33,20.10
2010,08,10,13,34,20.10
2010,08,10,13,35,20.10
2010,08,10,13,36,20.00
2010,08,10,13,37,20.00
2010,08,10,13,38,19.90
2010,08,10,13,39,19.90
2010,08,10,13,40,19.90
2010,08,10,13,41,19.80
2010,08,10,13,42,19.80
2010,08,10,13,43,19.80
2010,08,10,13,44,19.80
2010,08,10,13,45,19.90
2010,08,10,13,46,20.00
2010,08,10,13,47,20.10
2010,08,10,13,48,20.10
2010,08,10,13,49,20.10
2010,08,10,13,50,20.00
2010,08,10,13,51,20.00
2010,08,10,13,52,19.90
2010,08,10,13,53,19.90
2010,08,10,13,54,19.80
2010,08,10,13,55,19.70
2010,08,10,13,56,19.50
2010,08,10,13,57,19.40
2010,08,10,13,58,19.40
2010,08,10,13,59,19.40
2010,08,10,14,00,19.40
2010,08,10,14,01,19.40
2010,08,10,14,02,19.40
2010,08,10,14,03,19.40
2010,08,10,14,04,19.40
2010,08,10,14,05,19.40
2010,08,10,14,06,19.30
2010,08,10,14,07,19.30
2010,08,10,14,08,19.30
2010,08,10,14,09,19.40
2010,08,10,14,10,19.50
2010,08,10,14,11,19.60
2010,08,10,14,12,19.70
2010,08,10,14,13,19.90
2010,08,10,14,14,20.00
2010,08,10,14,15,20.10
2010,08,10,14,16,20.10
2010,08,10,14,17,20.10
2010,08,10,14,18,20.20
2010,08,10,14,19,20.10
2010,08,10,14,20,20.10
2010,08,10,14,21,20.10
2010,08,10,14,22,20.10
2010,08,10,14,23,20.10
2010,08,10,14,24,20.20
2010,08,10,14,25,20.10
2010,08,10,14,26,20.10
2010,08,10,14,27,20.00
2010,08,10,14,28,19.90
2010,08,10,14,29,19.80
2010,08,10,14,30,19.80
2010,08,10,14,31,19.80
2010,08,10,14,32,19.90
2010,08,10,14,33,19.90
2010,08,10,14,34,20.00
2010,08,10,14,35,19.90
2010,08,10,14,36,19.80
2010,08,10,14,37,19.80
2010,08,10,14,38,19.80
2010,08,10,14,39,19.90
2010,08,10,14,40,19.90
2010,08,10,14,41,19.90
2010,08,10,14,42,20.00
2010,08,10,14,43,20.10
2010,08,10,14,44,20.10
2010,08,10,14,45,20.20
2010,08,10,14,46,20.10
2010,08,10,14,47,20.00
2010,08,10,14,48,20.00
2010,08,10,14,49,19.90
2010,08,10,14,50,19.80
2010,08,10,14,51,19.80
2010,08,10,14,52,19.90
2010,08,10,14,53,20.00
2010,08,10,14,54,20.00
2010,08,10,14,55,20.10
2010,08,10,14,56,20.10
2010,08,10,14,57,20.10
2010,08,10,14,58,20.10
2010,08,10,14,59,20.10
2010,08,10,15,00,20.10
2010,08,10,15,01,20.20
2010,08,10,15,02,20.20
2010,08,10,15,03,20.20
2010,08,10,15,04,20.20
2010,08,10,15,05,20.10
2010,08,10,15,06,20.10
2010,08,10,15,07,20.10
2010,08,10,15,08,20.10
2010,08,10,15,09,20.10
2010,08,10,15,10,20.20
2010,08,10,15,11,20.30
2010,08,10,15,12,20.40
2010,08,10,15,13,20.40
2010,08,10,15,14,20.50
2010,08,10,15,15,20.60
2010,08,10,15,16,20.60
2010,08,10,15,17,20.60
2010,08,10,15,18,20.60
2010,08,10,15,19,20.60
2010,08,10,15,20,20.60
2010,08,10,15,21,20.70
2010,08,10,15,22,20.70
2010,08,10,15,23,20.80
2010,08,10,15,24,20.80
2010,08,10,15,25,20.80
2010,08,10,15,26,20.80
2010,08,10,15,27,20.80
2010,08,10,15,28,20.90
2010,08,10,15,29,20.90
2010,08,10,15,30,20.90
2010,08,10,15,31,21.00
2010,08,10,15,32,21.00
2010,08,10,15,33,21.10
2010,08,10,15,34,21.10
2010,08,10,15,35,21.10
2010,08,10,15,36,21.10
2010,08,10,15,37,21.10
2010,08,10,15,38,21.10
2010,08,10,15,39,21.10
2010,08,10,15,40,21.10
2010,08,10,15,41,21.10
2010,08,10,15,42,21.10
2010,08,10,15,43,21.10
2010,08,10,15,44,21.10
2010,08,10,15,45,21.10
2010,08,10,15,46,21.10
2010,08,10,15,47,21.20
2010,08,10,15,48,21.30
2010,08,10,15,49,21.40
2010,08,10,15,50,21.60
2010,08,10,15,51,21.70
2010,08,10,15,52,21.80
2010,08,10,15,53,21.70
2010,08,10,15,54,21.60
2010,08,10,15,55,21.60
2010,08,10,15,56,21.60
2010,08,10,15,57,21.60
2010,08,10,15,58,21.60
2010,08,10,15,59,21.60
2010,08,10,16,00,21.60
2010,08,10,16,01,21.60
2010,08,10,16,02,21.60
2010,08,10,16,03,21.60
2010,08,10,16,04,21.60
2010,08,10,16,05,21.60
2010,08,10,16,06,21.60
2010,08,10,16,07,21.70
2010,08,10,16,08,21.70
2010,08,10,16,09,21.70
2010,08,10,16,10,21.70
2010,08,10,16,11,21.70
2010,08,10,16,12,21.80
2010,08,10,16,13,21.80
2010,08,10,16,14,21.90
2010,08,10,16,15,21.80
2010,08,10,16,16,21.80
2010,08,10,16,17,21.80
2010,08,10,16,18,21.90
2010,08,10,16,19,21.90
2010,08,10,16,20,21.90
2010,08,10,16,21,21.80
2010,08,10,16,22,21.80
2010,08,10,16,23,21.80
2010,08,10,16,24,21.90
2010,08,10,16,25,22.00
2010,08,10,16,26,22.10
2010,08,10,16,27,22.10
2010,08,10,16,28,22.10
2010,08,10,16,29,22.10
2010,08,10,16,30,22.10
2010,08,10,16,31,22.10
2010,08,10,16,32,22.10
2010,08,10,16,33,22.10
2010,08,10,16,34,22.00
2010,08,10,16,35,21.90
2010,08,10,16,36,21.80
2010,08,10,16,37,21.80
2010,08,10,16,38,21.80
2010,08,10,16,39,21.80
2010,08,10,16,40,21.80
2010,08,10,16,41,21.80
2010,08,10,16,42,21.80
2010,08,10,16,43,21.90
2010,08,10,16,44,21.90
2010,08,10,16,45,21.90
2010,08,10,16,46,21.80
2010,08,10,16,47,21.80
2010,08,10,16,48,21.80
2010,08,10,16,49,21.80
2010,08,10,16,50,21.90
2010,08,10,16,51,21.90
2010,08,10,16,52,22.00
2010,08,10,16,53,22.00
2010,08,10,16,54,21.90
2010,08,10,16,55,21.90
2010,08,10,16,56,21.80
2010,08,10,16,57,21.80
2010,08,10,16,58,21.80
2010,08,10,16,59,21.90
2010,08,10,17,00,21.90
2010,08,10,17,01,21.90
2010,08,10,17,02,22.00
2010,08,10,17,03,22.00
2010,08,10,17,04,22.00
2010,08,10,17,05,22.00
2010,08,10,17,06,22.10
2010,08,10,17,07,22.20
2010,08,10,17,08,22.20
2010,08,10,17,09,22.30
2010,08,10,17,10,22.40
2010,08,10,17,11,22.50
2010,08,10,17,12,22.50
2010,08,10,17,13,22.60
2010,08,10,17,14,22.60
2010,08,10,17,15,22.60
2010,08,10,17,16,22.60
2010,08,10,17,17,22.60
2010,08,10,17,18,22.60
2010,08,10,17,19,22.60
2010,08,10,17,20,22.50
2010,08,10,17,21,22.50
2010,08,10,17,22,22.50
2010,08,10,17,23,22.60
2010,08,10,17,24,22.60